Location: Hilton Head Island
(32.2163°N, 80.7526°W)
Time: 17:43:48
(UTC-04:00)

A-11 Canister half - Pass Details

Date: 19 February 2026
Orbit: 1525 x 1683 km, 47.3° (Epoch: 10 March)

Event Time Altitude Azimuth Distance (km) Brightness Sun altitude
Rises 19:42:29 0° 296° (WNW) 4,687 12.7 -19.7°
Reaches altitude 10° 19:46:02 10° 306° (NW) 3,696 11.7 -20.4°
Maximum altitude 19:54:09 32° 7° (N) 2,376 9.9 -22.1°
Enters shadow 19:58:22 23° 49° (NE) 2,804 10.0 -23.0°
